Time,TemperatureF,DewpointF,PressureIn,WindDirection,WindDirectionDegrees,WindSpeedMPH,WindSpeedGustMPH,Humidity,HourlyPrecipIn,Conditions,Clouds,dailyrainin,SoftwareType,DateUTC
2013-06-27 00:02:00,73.6,62.8,28.85,SW,225,0.0,0.0,69,0.00,,---,0.00,VWS V14.01,2013-06-27 05:02:00,
2013-06-27 00:07:00,73.6,63.2,28.85,SW,225,0.0,0.0,70,0.00,,---,0.00,VWS V14.01,2013-06-27 05:07:00,
2013-06-27 00:13:00,73.4,63.0,28.85,SW,225,0.0,0.0,70,0.00,,---,0.00,VWS V14.01,2013-06-27 05:13:00,
2013-06-27 00:18:00,73.2,62.9,28.85,SW,225,0.0,0.0,70,0.00,,---,0.00,VWS V14.01,2013-06-27 05:18:00,
2013-06-27 00:23:00,73.2,63.3,28.85,SW,225,0.0,0.0,71,0.00,,---,0.00,VWS V14.01,2013-06-27 05:23:00,
2013-06-27 00:28:00,73.0,63.1,28.85,SW,225,0.0,0.0,71,0.00,,---,0.00,VWS V14.01,2013-06-27 05:28:00,
2013-06-27 00:33:00,72.9,62.9,28.85,SW,225,0.0,0.0,71,0.00,,---,0.00,VWS V14.01,2013-06-27 05:33:00,
2013-06-27 00:38:00,72.7,63.1,28.85,SW,225,0.0,0.0,72,0.00,,---,0.00,VWS V14.01,2013-06-27 05:38:00,
2013-06-27 00:43:00,72.5,63.4,28.85,SW,225,0.0,0.0,73,0.00,,---,0.00,VWS V14.01,2013-06-27 05:43:00,
2013-06-27 00:48:00,72.3,63.2,28.88,SW,225,0.0,0.0,73,0.00,,---,0.00,VWS V14.01,2013-06-27 05:48:00,
2013-06-27 00:53:00,72.1,63.4,28.88,SW,225,0.0,0.0,74,0.00,,---,0.00,VWS V14.01,2013-06-27 05:53:00,
2013-06-27 00:58:00,72.0,63.2,28.88,SW,225,0.0,0.0,74,0.00,,---,0.00,VWS V14.01,2013-06-27 05:58:00,
2013-06-27 01:03:00,71.8,63.4,28.88,SW,225,0.0,0.0,75,0.00,,---,0.00,VWS V14.01,2013-06-27 06:03:00,
2013-06-27 01:08:00,71.6,63.3,28.88,SW,225,0.0,0.0,75,0.00,,---,0.00,VWS V14.01,2013-06-27 06:08:00,
2013-06-27 01:13:00,71.4,63.5,28.88,SW,225,0.0,0.0,76,0.00,,---,0.00,VWS V14.01,2013-06-27 06:13:00,
2013-06-27 01:18:00,71.4,63.8,28.88,SW,225,0.0,0.0,77,0.00,,---,0.00,VWS V14.01,2013-06-27 06:18:00,
2013-06-27 01:23:00,71.2,63.7,28.88,SW,225,0.0,0.0,77,0.00,,---,0.00,VWS V14.01,2013-06-27 06:23:00,
2013-06-27 01:28:00,71.1,63.5,28.88,SW,225,0.0,0.0,77,0.00,,---,0.00,VWS V14.01,2013-06-27 06:28:00,
2013-06-27 01:33:00,71.1,63.9,28.88,SW,225,0.0,0.0,78,0.00,,---,0.00,VWS V14.01,2013-06-27 06:33:00,
2013-06-27 01:38:00,70.9,63.7,28.88,SW,225,0.0,0.0,78,0.00,,---,0.00,VWS V14.01,2013-06-27 06:38:00,
2013-06-27 01:43:00,70.9,63.7,28.88,SW,225,0.0,0.0,78,0.00,,---,0.00,VWS V14.01,2013-06-27 06:43:00,
2013-06-27 01:49:00,70.7,63.9,28.88,SW,225,0.0,0.0,79,0.00,,---,0.00,VWS V14.01,2013-06-27 06:49:00,
2013-06-27 01:54:00,70.7,63.9,28.88,SW,225,0.0,0.0,79,0.00,,---,0.00,VWS V14.01,2013-06-27 06:54:00,
2013-06-27 01:59:00,70.5,63.7,28.88,SW,225,0.0,0.0,79,0.00,,---,0.00,VWS V14.01,2013-06-27 06:59:00,
2013-06-27 02:04:00,70.3,63.9,28.88,SW,225,0.0,0.0,80,0.00,,---,0.00,VWS V14.01,2013-06-27 07:04:00,
2013-06-27 02:09:00,70.3,63.9,28.88,SW,225,0.0,0.0,80,0.00,,---,0.00,VWS V14.01,2013-06-27 07:09:00,
2013-06-27 02:14:00,70.2,63.7,28.88,SW,225,0.0,0.0,80,0.00,,---,0.00,VWS V14.01,2013-06-27 07:14:00,
2013-06-27 02:19:00,70.2,63.7,28.88,SW,225,0.0,0.0,80,0.00,,---,0.00,VWS V14.01,2013-06-27 07:19:00,
2013-06-27 02:24:00,70.0,63.5,28.88,SW,225,0.0,0.0,80,0.00,,---,0.00,VWS V14.01,2013-06-27 07:24:00,
2013-06-27 02:29:00,70.0,63.9,28.88,SW,225,0.0,0.0,81,0.00,,---,0.00,VWS V14.01,2013-06-27 07:29:00,
2013-06-27 02:34:00,69.8,63.7,28.88,SW,225,0.0,0.0,81,0.00,,---,0.00,VWS V14.01,2013-06-27 07:34:00,
2013-06-27 02:39:00,69.6,63.5,28.88,SW,225,0.0,0.0,81,0.00,,---,0.00,VWS V14.01,2013-06-27 07:39:00,
2013-06-27 02:44:00,69.4,63.7,28.88,SW,225,0.0,0.0,82,0.00,,---,0.00,VWS V14.01,2013-06-27 07:44:00,
2013-06-27 02:49:00,69.3,63.5,28.88,SW,225,0.0,0.0,82,0.00,,---,0.00,VWS V14.01,2013-06-27 07:49:00,
2013-06-27 02:54:00,69.3,63.5,28.88,SW,225,0.0,0.0,82,0.00,,---,0.00,VWS V14.01,2013-06-27 07:54:00,
2013-06-27 02:59:00,69.1,63.7,28.88,SW,225,0.0,0.0,83,0.00,,---,0.00,VWS V14.01,2013-06-27 07:59:00,
2013-06-27 03:04:00,69.1,64.1,28.88,SW,225,0.0,0.0,84,0.00,,---,0.00,VWS V14.01,2013-06-27 08:04:00,
2013-06-27 03:09:00,69.1,64.1,28.88,SW,225,0.0,0.0,84,0.00,,---,0.00,VWS V14.01,2013-06-27 08:09:00,
2013-06-27 03:14:00,68.9,64.2,28.91,SW,225,0.0,0.0,85,0.00,,---,0.00,VWS V14.01,2013-06-27 08:14:00,
2013-06-27 03:19:00,68.9,64.2,28.91,SW,225,0.0,0.0,85,0.00,,---,0.00,VWS V14.01,2013-06-27 08:19:00,
2013-06-27 03:24:00,68.9,64.2,28.91,SW,225,0.0,0.0,85,0.00,,---,0.00,VWS V14.01,2013-06-27 08:24:00,
2013-06-27 03:29:00,68.7,64.0,28.88,SW,225,0.0,0.0,85,0.00,,---,0.00,VWS V14.01,2013-06-27 08:29:00,
2013-06-27 03:34:00,68.7,64.0,28.88,SW,225,0.0,0.0,85,0.00,,---,0.00,VWS V14.01,2013-06-27 08:34:00,
2013-06-27 03:39:00,68.7,64.4,28.88,SW,225,0.0,0.0,86,0.00,,---,0.00,VWS V14.01,2013-06-27 08:39:00,
2013-06-27 03:44:00,68.5,64.2,28.88,SW,225,0.0,0.0,86,0.00,,---,0.00,VWS V14.01,2013-06-27 08:44:00,
2013-06-27 03:50:00,68.5,64.2,28.88,SW,225,0.0,0.0,86,0.00,,---,0.00,VWS V14.01,2013-06-27 08:50:00,
2013-06-27 03:55:00,68.4,64.0,28.88,SW,225,0.0,0.0,86,0.00,,---,0.00,VWS V14.01,2013-06-27 08:55:00,
2013-06-27 04:00:00,68.4,64.0,28.88,SW,225,0.0,0.0,86,0.00,,---,0.00,VWS V14.01,2013-06-27 09:00:00,
2013-06-27 04:05:00,68.2,64.2,28.88,SW,225,0.0,0.0,87,0.00,,---,0.00,VWS V14.01,2013-06-27 09:05:00,
2013-06-27 04:10:00,68.2,64.2,28.88,SW,225,0.0,0.0,87,0.00,,---,0.00,VWS V14.01,2013-06-27 09:10:00,
2013-06-27 04:15:00,68.2,64.2,28.88,SW,225,0.0,0.0,87,0.00,,---,0.00,VWS V14.01,2013-06-27 09:15:00,
2013-06-27 04:20:00,68.0,64.0,28.88,SW,225,0.0,0.0,87,0.00,,---,0.00,VWS V14.01,2013-06-27 09:20:00,
2013-06-27 04:25:00,68.0,64.0,28.88,SW,225,0.0,0.0,87,0.00,,---,0.00,VWS V14.01,2013-06-27 09:25:00,
2013-06-27 04:30:00,67.8,64.1,28.88,SW,225,0.0,0.0,88,0.00,,---,0.00,VWS V14.01,2013-06-27 09:30:00,
2013-06-27 04:35:00,67.6,64.3,28.88,SW,225,0.0,0.0,89,0.00,,---,0.00,VWS V14.01,2013-06-27 09:35:00,
2013-06-27 04:40:00,67.6,64.3,28.88,SW,225,0.0,0.0,89,0.00,,---,0.00,VWS V14.01,2013-06-27 09:40:00,
2013-06-27 04:45:00,67.6,64.6,28.88,SW,225,0.0,0.0,90,0.00,,---,0.00,VWS V14.01,2013-06-27 09:45:00,
2013-06-27 04:50:00,67.6,64.6,28.88,SW,225,0.0,0.0,90,0.00,,---,0.00,VWS V14.01,2013-06-27 09:50:00,
2013-06-27 04:55:00,67.5,64.4,28.88,SW,225,0.0,0.0,90,0.00,,---,0.00,VWS V14.01,2013-06-27 09:55:00,
2013-06-27 05:00:00,67.5,64.4,28.91,SW,225,0.0,0.0,90,0.00,,---,0.00,VWS V14.01,2013-06-27 10:00:00,
2013-06-27 05:05:00,67.5,64.4,28.91,SW,225,0.0,0.0,90,0.00,,---,0.00,VWS V14.01,2013-06-27 10:05:00,
2013-06-27 05:10:00,67.5,64.4,28.91,SW,225,0.0,0.0,90,0.00,,---,0.00,VWS V14.01,2013-06-27 10:10:00,
2013-06-27 05:15:00,67.3,64.2,28.91,SW,225,0.0,0.0,90,0.00,,---,0.00,VWS V14.01,2013-06-27 10:15:00,
2013-06-27 05:20:00,67.3,64.6,28.91,SW,225,0.0,0.0,91,0.00,,---,0.00,VWS V14.01,2013-06-27 10:20:00,
2013-06-27 05:26:00,67.3,64.6,28.91,SW,225,0.0,0.0,91,0.00,,---,0.00,VWS V14.01,2013-06-27 10:26:00,
2013-06-27 05:31:00,67.3,64.6,28.91,SW,225,0.0,0.0,91,0.00,,---,0.00,VWS V14.01,2013-06-27 10:31:00,
2013-06-27 05:36:00,67.3,64.6,28.91,SW,225,0.0,0.0,91,0.00,,---,0.00,VWS V14.01,2013-06-27 10:36:00,
2013-06-27 05:41:00,67.3,64.6,28.91,SW,225,0.0,0.0,91,0.00,,---,0.00,VWS V14.01,2013-06-27 10:41:00,
2013-06-27 05:46:00,67.3,64.6,28.91,SW,225,0.0,0.0,91,0.00,,---,0.00,VWS V14.01,2013-06-27 10:46:00,
2013-06-27 05:51:00,67.3,64.6,28.91,SW,225,0.0,0.0,91,0.00,,---,0.00,VWS V14.01,2013-06-27 10:51:00,
2013-06-27 05:56:00,67.3,64.9,28.91,SW,225,0.0,0.0,92,0.00,,---,0.00,VWS V14.01,2013-06-27 10:56:00,
2013-06-27 06:01:00,67.3,64.6,28.91,SW,225,0.0,0.0,91,0.00,,---,0.00,VWS V14.01,2013-06-27 11:01:00,
2013-06-27 06:06:00,67.3,64.9,28.91,SW,225,0.0,0.0,92,0.00,,---,0.00,VWS V14.01,2013-06-27 11:06:00,
2013-06-27 06:11:00,67.3,64.9,28.91,SW,225,0.0,0.0,92,0.00,,---,0.00,VWS V14.01,2013-06-27 11:11:00,
2013-06-27 06:16:00,67.5,65.4,28.91,SW,225,0.0,0.0,93,0.00,,---,0.00,VWS V14.01,2013-06-27 11:16:00,
2013-06-27 06:21:00,67.6,65.6,28.91,SW,225,0.0,0.0,93,0.00,,---,0.00,VWS V14.01,2013-06-27 11:21:00,
2013-06-27 06:26:00,67.8,65.7,28.91,SW,225,0.0,0.0,93,0.00,,---,0.00,VWS V14.01,2013-06-27 11:26:00,
2013-06-27 06:31:00,68.2,66.1,28.91,SW,225,0.0,0.0,93,0.00,,---,0.00,VWS V14.01,2013-06-27 11:31:00,
2013-06-27 06:36:00,68.4,66.3,28.91,SW,225,0.0,0.0,93,0.00,,---,0.00,VWS V14.01,2013-06-27 11:36:00,
2013-06-27 06:41:00,68.5,66.4,28.91,SW,225,0.0,0.0,93,0.00,,---,0.00,VWS V14.01,2013-06-27 11:41:00,
2013-06-27 06:46:00,68.9,66.8,28.91,SW,225,0.0,0.0,93,0.00,,---,0.00,VWS V14.01,2013-06-27 11:46:00,
2013-06-27 06:51:00,69.3,67.2,28.91,SW,225,0.0,0.0,93,0.00,,---,0.00,VWS V14.01,2013-06-27 11:51:00,
2013-06-27 06:56:00,70.2,67.7,28.91,SW,225,0.0,0.0,92,0.00,,---,0.00,VWS V14.01,2013-06-27 11:56:00,
2013-06-27 07:01:00,71.1,68.3,28.91,SW,225,0.0,0.0,91,0.00,,---,0.00,VWS V14.01,2013-06-27 12:01:00,
2013-06-27 07:07:00,71.6,68.2,28.91,SW,225,0.0,0.0,89,0.00,,---,0.00,VWS V14.01,2013-06-27 12:07:00,
2013-06-27 07:12:00,71.4,67.7,28.91,SW,225,0.0,0.0,88,0.00,,---,0.00,VWS V14.01,2013-06-27 12:12:00,
2013-06-27 07:17:00,71.2,67.5,28.91,SW,225,0.0,0.0,88,0.00,,---,0.00,VWS V14.01,2013-06-27 12:17:00,
2013-06-27 07:22:00,71.2,67.2,28.91,SW,225,0.0,0.0,87,0.00,,---,0.00,VWS V14.01,2013-06-27 12:22:00,
2013-06-27 07:27:00,71.6,67.5,28.91,SW,225,0.0,0.0,87,0.00,,---,0.00,VWS V14.01,2013-06-27 12:27:00,
2013-06-27 07:32:00,71.8,67.7,28.91,SW,225,0.0,0.0,87,0.00,,---,0.00,VWS V14.01,2013-06-27 12:32:00,
2013-06-27 07:37:00,72.0,67.9,28.91,SW,225,0.0,0.0,87,0.00,,---,0.00,VWS V14.01,2013-06-27 12:37:00,
2013-06-27 07:42:00,72.1,68.1,28.91,SW,225,0.0,0.0,87,0.00,,---,0.00,VWS V14.01,2013-06-27 12:42:00,
2013-06-27 07:47:00,72.1,67.7,28.91,SW,225,0.0,0.0,86,0.00,,---,0.00,VWS V14.01,2013-06-27 12:47:00,
2013-06-27 07:52:00,72.3,67.9,28.91,SW,225,0.0,0.0,86,0.00,,---,0.00,VWS V14.01,2013-06-27 12:52:00,
2013-06-27 07:57:00,72.3,67.6,28.91,SW,225,0.0,0.0,85,0.00,,---,0.00,VWS V14.01,2013-06-27 12:57:00,
2013-06-27 08:02:00,72.5,67.7,28.91,SW,225,0.0,0.0,85,0.00,,---,0.00,VWS V14.01,2013-06-27 13:02:00,
2013-06-27 08:07:00,72.9,68.1,28.91,SW,225,0.0,0.0,85,0.00,,---,0.00,VWS V14.01,2013-06-27 13:07:00,
2013-06-27 08:12:00,73.2,68.4,28.91,SW,225,0.0,0.0,85,0.00,,---,0.00,VWS V14.01,2013-06-27 13:12:00,
2013-06-27 08:17:00,73.6,68.4,28.91,SW,225,0.0,0.0,84,0.00,,---,0.00,VWS V14.01,2013-06-27 13:17:00,
2013-06-27 08:22:00,73.9,68.8,28.91,SW,225,0.0,0.0,84,0.00,,---,0.00,VWS V14.01,2013-06-27 13:22:00,
2013-06-27 08:27:00,74.1,69.0,28.91,SW,225,0.0,0.0,84,0.00,,---,0.00,VWS V14.01,2013-06-27 13:27:00,
2013-06-27 08:32:00,74.3,68.8,28.94,SW,225,0.0,0.0,83,0.00,,---,0.00,VWS V14.01,2013-06-27 13:32:00,
2013-06-27 08:37:00,74.7,69.2,28.94,SW,225,0.0,0.0,83,0.00,,---,0.00,VWS V14.01,2013-06-27 13:37:00,
2013-06-27 08:42:00,75.0,69.5,28.94,SW,225,0.0,0.0,83,0.00,,---,0.00,VWS V14.01,2013-06-27 13:42:00,
2013-06-27 08:47:00,75.4,69.9,28.91,WSW,248,0.9,0.9,83,0.00,,---,0.00,VWS V14.01,2013-06-27 13:47:00,
2013-06-27 08:52:00,75.9,69.7,28.91,WSW,248,0.0,0.0,81,0.00,,---,0.00,VWS V14.01,2013-06-27 13:52:00,
2013-06-27 08:57:00,76.3,69.7,28.91,WSW,248,0.0,0.0,80,0.00,,---,0.00,VWS V14.01,2013-06-27 13:57:00,
2013-06-27 09:02:00,76.3,69.7,28.91,WSW,248,0.0,0.0,80,0.00,,---,0.00,VWS V14.01,2013-06-27 14:02:00,
2013-06-27 09:07:00,76.5,69.8,28.91,WSW,248,0.0,0.0,80,0.00,,---,0.00,VWS V14.01,2013-06-27 14:07:00,
2013-06-27 09:12:00,76.6,69.6,28.91,West,270,0.0,0.0,79,0.00,,---,0.00,VWS V14.01,2013-06-27 14:12:00,
2013-06-27 09:17:00,76.8,69.8,28.91,West,270,0.0,0.0,79,0.00,,---,0.00,VWS V14.01,2013-06-27 14:17:00,
2013-06-27 09:22:00,76.8,70.2,28.91,West,270,0.0,0.0,80,0.00,,---,0.00,VWS V14.01,2013-06-27 14:22:00,
2013-06-27 09:27:00,76.8,70.2,28.91,West,270,0.0,0.0,80,0.00,,---,0.00,VWS V14.01,2013-06-27 14:27:00,
2013-06-27 09:32:00,76.8,69.8,28.91,West,270,0.0,0.0,79,0.00,,---,0.00,VWS V14.01,2013-06-27 14:32:00,
2013-06-27 09:37:00,76.8,69.8,28.91,West,270,0.0,0.0,79,0.00,,---,0.00,VWS V14.01,2013-06-27 14:37:00,
2013-06-27 09:42:00,76.8,69.8,28.91,West,270,0.0,0.0,79,0.00,,---,0.00,VWS V14.01,2013-06-27 14:42:00,
2013-06-27 09:47:00,76.8,69.8,28.91,West,270,0.0,0.0,79,0.00,,---,0.00,VWS V14.01,2013-06-27 14:47:00,
2013-06-27 09:52:00,76.8,69.8,28.91,West,270,0.0,0.0,79,0.00,,---,0.00,VWS V14.01,2013-06-27 14:52:00,
2013-06-27 09:57:00,76.8,69.8,28.91,West,270,0.0,0.0,79,0.00,,---,0.00,VWS V14.01,2013-06-27 14:57:00,
2013-06-27 10:02:00,76.6,69.6,28.91,West,270,0.0,0.0,79,0.00,,---,0.00,VWS V14.01,2013-06-27 15:02:00,
2013-06-27 10:07:00,76.3,69.3,28.91,West,270,0.0,0.0,79,0.00,,---,0.00,VWS V14.01,2013-06-27 15:07:00,
2013-06-27 10:12:00,76.1,69.1,28.91,West,270,0.0,0.0,79,0.00,,---,0.00,VWS V14.01,2013-06-27 15:12:00,
2013-06-27 10:17:00,75.9,68.6,28.94,West,270,0.0,0.0,78,0.00,,---,0.00,VWS V14.01,2013-06-27 15:17:00,
2013-06-27 10:22:00,75.7,68.4,28.94,West,270,0.0,0.0,78,0.00,,---,0.00,VWS V14.01,2013-06-27 15:22:00,
2013-06-27 10:27:00,75.6,68.6,28.94,West,270,0.0,0.0,79,0.00,,---,0.00,VWS V14.01,2013-06-27 15:27:00,
2013-06-27 10:32:00,75.4,68.8,28.94,West,270,0.0,0.0,80,0.00,,---,0.00,VWS V14.01,2013-06-27 15:32:00,
2013-06-27 10:37:00,75.4,68.8,28.94,West,270,0.0,0.0,80,0.00,,---,0.00,VWS V14.01,2013-06-27 15:37:00,
2013-06-27 10:42:00,75.4,69.2,28.94,West,270,0.0,0.0,81,0.00,,---,0.00,VWS V14.01,2013-06-27 15:42:00,
2013-06-27 10:47:00,75.4,69.5,28.91,West,270,0.0,0.0,82,0.00,,---,0.00,VWS V14.01,2013-06-27 15:47:00,
2013-06-27 10:52:00,75.4,69.5,28.91,West,270,0.0,0.0,82,0.00,,---,0.00,VWS V14.01,2013-06-27 15:52:00,
2013-06-27 10:57:00,75.6,69.7,28.91,West,270,0.0,0.0,82,0.00,,---,0.00,VWS V14.01,2013-06-27 15:57:00,
2013-06-27 11:02:00,75.6,70.0,28.91,West,270,0.0,0.0,83,0.00,,---,0.00,VWS V14.01,2013-06-27 16:02:00,
2013-06-27 11:07:00,75.7,70.2,28.91,West,270,0.0,0.0,83,0.00,,---,0.00,VWS V14.01,2013-06-27 16:07:00,
2013-06-27 11:12:00,75.7,70.2,28.91,West,270,0.0,0.0,83,0.00,,---,0.00,VWS V14.01,2013-06-27 16:12:00,
2013-06-27 11:17:00,75.9,70.4,28.94,West,270,0.0,0.0,83,0.00,,---,0.00,VWS V14.01,2013-06-27 16:17:00,
2013-06-27 11:22:00,75.9,70.0,28.94,West,270,0.0,0.0,82,0.00,,---,0.00,VWS V14.01,2013-06-27 16:22:00,
2013-06-27 11:27:00,75.9,69.7,28.94,West,270,0.0,0.0,81,0.00,,---,0.00,VWS V14.01,2013-06-27 16:27:00,
2013-06-27 11:32:00,75.9,69.3,28.94,West,270,0.0,0.0,80,0.00,,---,0.00,VWS V14.01,2013-06-27 16:32:00,
2013-06-27 11:37:00,75.9,68.9,28.94,West,270,0.0,0.0,79,0.00,,---,0.00,VWS V14.01,2013-06-27 16:37:00,
2013-06-27 11:42:00,76.1,69.1,28.94,West,270,0.0,0.0,79,0.00,,---,0.00,VWS V14.01,2013-06-27 16:42:00,
2013-06-27 11:47:00,76.1,69.1,28.97,West,270,0.0,0.0,79,0.00,,---,0.00,VWS V14.01,2013-06-27 16:47:00,
2013-06-27 11:52:00,76.1,68.8,28.97,West,270,0.0,0.0,78,0.00,,---,0.00,VWS V14.01,2013-06-27 16:52:00,
2013-06-27 11:57:00,76.3,68.6,28.97,West,270,0.0,0.0,77,0.00,,---,0.00,VWS V14.01,2013-06-27 16:57:00,
2013-06-27 12:02:00,76.3,67.8,28.97,SW,225,0.0,0.0,75,0.00,,---,0.00,VWS V14.01,2013-06-27 17:02:00,
2013-06-27 12:07:00,76.1,67.6,28.97,SW,225,0.0,0.0,75,0.00,,---,0.00,VWS V14.01,2013-06-27 17:07:00,
2013-06-27 12:12:00,76.1,67.6,28.97,SW,225,0.0,0.0,75,0.00,,---,0.00,VWS V14.01,2013-06-27 17:12:00,
2013-06-27 12:17:00,75.9,67.4,28.97,SW,225,0.0,0.0,75,0.00,,---,0.00,VWS V14.01,2013-06-27 17:17:00,
2013-06-27 12:22:00,75.9,67.4,28.97,SW,225,0.0,0.0,75,0.00,,---,0.00,VWS V14.01,2013-06-27 17:22:00,
2013-06-27 12:27:00,75.9,67.0,28.97,SW,225,0.0,0.0,74,0.00,,---,0.00,VWS V14.01,2013-06-27 17:27:00,
2013-06-27 12:32:00,76.1,66.8,28.97,SW,225,0.0,0.0,73,0.00,,---,0.00,VWS V14.01,2013-06-27 17:32:00,
2013-06-27 12:37:00,75.9,66.7,28.97,SW,225,0.0,0.0,73,0.00,,---,0.00,VWS V14.01,2013-06-27 17:37:00,
2013-06-27 12:42:00,75.7,66.9,28.97,SW,225,0.0,0.0,74,0.00,,---,0.00,VWS V14.01,2013-06-27 17:42:00,
2013-06-27 12:47:00,75.6,66.7,28.97,SW,225,0.0,0.0,74,0.00,,---,0.00,VWS V14.01,2013-06-27 17:47:00,
2013-06-27 12:52:00,75.4,65.7,28.97,SW,225,0.0,0.0,72,0.00,,---,0.00,VWS V14.01,2013-06-27 17:52:00,
2013-06-27 12:57:00,75.2,66.0,28.97,SW,225,0.0,0.0,73,0.00,,---,0.00,VWS V14.01,2013-06-27 17:57:00,
2013-06-27 13:02:00,74.5,66.0,28.97,SW,225,0.0,0.0,75,0.00,,---,0.00,VWS V14.01,2013-06-27 18:02:00,
2013-06-27 13:07:00,74.1,65.7,28.97,SW,225,0.0,0.0,75,0.00,,---,0.00,VWS V14.01,2013-06-27 18:07:00,
2013-06-27 13:12:00,73.8,66.1,28.97,SW,225,0.0,0.0,77,0.00,,---,0.00,VWS V14.01,2013-06-27 18:12:00,
2013-06-27 13:17:00,73.6,65.9,28.97,SW,225,0.0,0.0,77,0.00,,---,0.00,VWS V14.01,2013-06-27 18:17:00,
2013-06-27 13:22:00,73.6,66.3,28.97,SW,225,0.0,0.0,78,0.00,,---,0.00,VWS V14.01,2013-06-27 18:22:00,
2013-06-27 13:27:00,73.6,66.3,28.97,SW,225,0.0,0.0,78,0.00,,---,0.00,VWS V14.01,2013-06-27 18:27:00,
2013-06-27 13:32:00,73.6,66.7,28.97,SW,225,0.0,0.0,79,0.00,,---,0.00,VWS V14.01,2013-06-27 18:32:00,
2013-06-27 13:37:00,73.6,66.7,28.97,SW,225,0.0,0.0,79,0.00,,---,0.00,VWS V14.01,2013-06-27 18:37:00,
2013-06-27 13:42:00,73.8,66.8,28.97,SW,225,0.0,0.0,79,0.00,,---,0.00,VWS V14.01,2013-06-27 18:42:00,
2013-06-27 13:47:00,73.8,66.8,28.97,SW,225,0.0,0.0,79,0.00,,---,0.00,VWS V14.01,2013-06-27 18:47:00,
2013-06-27 13:52:00,74.1,67.6,28.97,SW,225,0.0,0.0,80,0.00,,---,0.00,VWS V14.01,2013-06-27 18:52:00,
2013-06-27 13:57:00,74.5,67.9,28.97,SW,225,0.0,0.0,80,0.00,,---,0.00,VWS V14.01,2013-06-27 18:57:00,
2013-06-27 14:02:00,74.7,68.1,28.94,SW,225,0.0,0.0,80,0.00,,---,0.00,VWS V14.01,2013-06-27 19:02:00,
2013-06-27 14:07:00,75.0,68.8,28.94,SW,225,0.0,0.0,81,0.00,,---,0.00,VWS V14.01,2013-06-27 19:07:00,
2013-06-27 14:12:00,75.2,69.0,28.94,SW,225,0.0,0.0,81,0.00,,---,0.00,VWS V14.01,2013-06-27 19:12:00,
2013-06-27 14:17:00,75.2,68.6,28.94,SW,225,0.0,0.0,80,0.00,,---,0.00,VWS V14.01,2013-06-27 19:17:00,
2013-06-27 14:22:00,75.4,68.8,28.94,SW,225,0.0,0.0,80,0.00,,---,0.00,VWS V14.01,2013-06-27 19:22:00,
2013-06-27 14:27:00,75.6,68.6,28.94,SW,225,0.0,0.0,79,0.00,,---,0.00,VWS V14.01,2013-06-27 19:27:00,
2013-06-27 14:32:00,75.7,68.8,28.94,SW,225,0.0,0.0,79,0.00,,---,0.00,VWS V14.01,2013-06-27 19:32:00,
2013-06-27 14:37:00,76.3,69.3,28.94,SW,225,0.0,0.0,79,0.00,,---,0.00,VWS V14.01,2013-06-27 19:37:00,
2013-06-27 14:42:00,77.0,69.6,28.94,SW,225,0.0,0.0,78,0.00,,---,0.00,VWS V14.01,2013-06-27 19:42:00,
2013-06-27 14:47:00,77.4,69.6,28.94,SW,225,0.0,0.0,77,0.00,,---,0.00,VWS V14.01,2013-06-27 19:47:00,
2013-06-27 14:52:00,77.7,68.8,28.94,SW,225,0.0,0.0,74,0.00,,---,0.00,VWS V14.01,2013-06-27 19:52:00,
2013-06-27 14:57:00,78.1,68.3,28.94,SW,225,0.0,0.0,72,0.00,,---,0.00,VWS V14.01,2013-06-27 19:57:00,
2013-06-27 15:02:00,78.3,68.5,28.91,SW,225,0.0,0.0,72,0.00,,---,0.00,VWS V14.01,2013-06-27 20:02:00,
2013-06-27 15:07:00,78.6,68.4,28.91,SW,225,0.0,0.0,71,0.00,,---,0.00,VWS V14.01,2013-06-27 20:07:00,
2013-06-27 15:12:00,79.0,67.5,28.91,SW,225,0.0,0.0,68,0.00,,---,0.00,VWS V14.01,2013-06-27 20:12:00,
2013-06-27 15:17:00,79.0,67.5,28.94,SW,225,0.0,0.0,68,0.00,,---,0.00,VWS V14.01,2013-06-27 20:17:00,
2013-06-27 15:22:00,79.2,67.3,28.94,SW,225,0.0,0.0,67,0.00,,---,0.00,VWS V14.01,2013-06-27 20:22:00,
2013-06-27 15:27:00,79.5,67.2,28.94,SW,225,0.0,0.0,66,0.00,,---,0.00,VWS V14.01,2013-06-27 20:27:00,
2013-06-27 15:32:00,79.7,67.3,28.94,SW,225,0.0,0.0,66,0.00,,---,0.00,VWS V14.01,2013-06-27 20:32:00,
2013-06-27 15:37:00,79.9,67.1,28.94,SW,225,0.0,0.0,65,0.00,,---,0.00,VWS V14.01,2013-06-27 20:37:00,
2013-06-27 15:42:00,80.1,67.2,28.94,SW,225,0.0,0.0,65,0.00,,---,0.00,VWS V14.01,2013-06-27 20:42:00,
2013-06-27 15:48:00,80.4,67.1,28.94,SW,225,0.0,0.0,64,0.00,,---,0.00,VWS V14.01,2013-06-27 20:48:00,
2013-06-27 15:53:00,80.6,66.8,28.94,SW,225,0.0,0.0,63,0.00,,---,0.00,VWS V14.01,2013-06-27 20:53:00,
2013-06-27 15:58:00,80.6,67.3,28.94,SW,225,0.0,0.0,64,0.00,,---,0.00,VWS V14.01,2013-06-27 20:58:00,
2013-06-27 16:03:00,81.0,67.2,28.94,SW,225,0.0,0.0,63,0.00,,---,0.00,VWS V14.01,2013-06-27 21:03:00,
2013-06-27 16:08:00,81.1,67.4,28.94,SW,225,0.0,0.0,63,0.00,,---,0.00,VWS V14.01,2013-06-27 21:08:00,
2013-06-27 16:13:00,81.3,67.5,28.91,SW,225,0.0,0.0,63,0.00,,---,0.00,VWS V14.01,2013-06-27 21:13:00,
2013-06-27 16:19:00,81.5,67.2,28.91,SW,225,0.0,0.0,62,0.00,,---,0.00,VWS V14.01,2013-06-27 21:19:00,
2013-06-27 16:24:00,81.5,66.8,28.91,SW,225,0.0,0.0,61,0.00,,---,0.00,VWS V14.01,2013-06-27 21:24:00,
2013-06-27 16:29:00,81.7,65.0,28.94,SW,225,0.0,0.0,57,0.00,,---,0.00,VWS V14.01,2013-06-27 21:29:00,
2013-06-27 16:34:00,81.7,65.5,28.94,SW,225,0.0,0.0,58,0.00,,---,0.00,VWS V14.01,2013-06-27 21:34:00,
2013-06-27 16:39:00,81.5,65.8,28.94,SW,225,0.0,0.0,59,0.00,,---,0.00,VWS V14.01,2013-06-27 21:39:00,
2013-06-27 16:44:00,81.7,65.5,28.91,SW,225,0.0,0.0,58,0.00,,---,0.00,VWS V14.01,2013-06-27 21:44:00,
2013-06-27 16:49:00,81.9,65.7,28.91,SW,225,0.0,0.0,58,0.00,,---,0.00,VWS V14.01,2013-06-27 21:49:00,
2013-06-27 16:54:00,81.9,66.1,28.91,SW,225,0.0,0.0,59,0.00,,---,0.00,VWS V14.01,2013-06-27 21:54:00,
2013-06-27 16:59:00,82.0,65.3,28.91,SW,225,0.0,0.0,57,0.00,,---,0.00,VWS V14.01,2013-06-27 21:59:00,
2013-06-27 17:05:00,82.2,66.0,28.91,SW,225,0.0,0.0,58,0.00,,---,0.00,VWS V14.01,2013-06-27 22:05:00,
2013-06-27 17:10:00,82.2,66.0,28.91,SW,225,0.0,0.0,58,0.00,,---,0.00,VWS V14.01,2013-06-27 22:10:00,
2013-06-27 17:15:00,82.4,65.7,28.91,ESE,112,0.0,0.0,57,0.00,,---,0.00,VWS V14.01,2013-06-27 22:15:00,
2013-06-27 17:21:00,82.6,65.3,28.91,WSW,248,0.0,0.0,56,0.00,,---,0.00,VWS V14.01,2013-06-27 22:21:00,
2013-06-27 17:26:00,82.6,65.8,28.91,WSW,248,0.0,0.0,57,0.00,,---,0.00,VWS V14.01,2013-06-27 22:26:00,
2013-06-27 17:31:00,82.4,65.7,28.91,West,270,0.0,0.0,57,0.00,,---,0.00,VWS V14.01,2013-06-27 22:31:00,
2013-06-27 17:36:00,82.4,65.1,28.91,West,270,0.0,0.0,56,0.00,,---,0.00,VWS V14.01,2013-06-27 22:36:00,
2013-06-27 17:41:00,82.6,65.3,28.91,WSW,248,0.0,0.0,56,0.00,,---,0.00,VWS V14.01,2013-06-27 22:41:00,
2013-06-27 17:46:00,82.6,65.8,28.88,WSW,248,0.0,0.0,57,0.00,,---,0.00,VWS V14.01,2013-06-27 22:46:00,
2013-06-27 17:52:00,82.4,65.7,28.88,WSW,248,0.0,0.0,57,0.00,,---,0.00,VWS V14.01,2013-06-27 22:52:00,
2013-06-27 17:57:00,82.4,65.7,28.88,WNW,292,0.0,0.0,57,0.00,,---,0.00,VWS V14.01,2013-06-27 22:57:00,
2013-06-27 18:02:00,82.4,65.1,28.88,WSW,248,0.0,0.0,56,0.00,,---,0.00,VWS V14.01,2013-06-27 23:02:00,
2013-06-27 18:07:00,82.4,64.6,28.88,WSW,248,0.0,0.0,55,0.00,,---,0.00,VWS V14.01,2013-06-27 23:07:00,
2013-06-27 18:12:00,82.4,65.1,28.88,WSW,248,0.0,0.0,56,0.00,,---,0.00,VWS V14.01,2013-06-27 23:12:00,
2013-06-27 18:17:00,82.4,64.6,28.88,WSW,248,0.0,1.1,55,0.00,,---,0.00,VWS V14.01,2013-06-27 23:17:00,
2013-06-27 18:22:00,82.4,64.6,28.88,WSW,248,0.0,0.0,55,0.00,,---,0.00,VWS V14.01,2013-06-27 23:22:00,
2013-06-27 18:28:00,82.4,64.1,28.88,WSW,248,0.0,0.0,54,0.00,,---,0.00,VWS V14.01,2013-06-27 23:28:00,
2013-06-27 18:33:00,82.4,63.0,28.88,WSW,248,0.0,0.0,52,0.00,,---,0.00,VWS V14.01,2013-06-27 23:33:00,
2013-06-27 18:38:00,82.4,62.5,28.88,West,270,0.0,0.0,51,0.00,,---,0.00,VWS V14.01,2013-06-27 23:38:00,
2013-06-27 18:43:00,82.4,63.0,28.88,WSW,248,0.0,0.0,52,0.00,,---,0.00,VWS V14.01,2013-06-27 23:43:00,
2013-06-27 18:48:00,82.2,62.9,28.88,SW,225,0.0,0.0,52,0.00,,---,0.00,VWS V14.01,2013-06-27 23:48:00,
2013-06-27 18:53:00,82.0,62.1,28.88,WSW,248,0.0,0.0,51,0.00,,---,0.00,VWS V14.01,2013-06-27 23:53:00,
2013-06-27 18:59:00,81.9,62.0,28.88,WSW,248,0.0,0.0,51,0.00,,---,0.00,VWS V14.01,2013-06-27 23:59:00,
2013-06-27 19:04:00,81.9,61.4,28.88,WSW,248,0.0,0.0,50,0.00,,---,0.00,VWS V14.01,2013-06-28 00:04:00,
2013-06-27 19:09:00,81.9,61.4,28.88,West,270,0.0,0.0,50,0.00,,---,0.00,VWS V14.01,2013-06-28 00:09:00,
2013-06-27 19:14:00,81.9,62.0,28.85,West,270,0.0,0.0,51,0.00,,---,0.00,VWS V14.01,2013-06-28 00:14:00,
2013-06-27 19:19:00,81.7,62.4,28.85,West,270,0.0,0.0,52,0.00,,---,0.00,VWS V14.01,2013-06-28 00:19:00,
2013-06-27 19:24:00,81.7,61.8,28.85,WSW,248,0.0,0.0,51,0.00,,---,0.00,VWS V14.01,2013-06-28 00:24:00,
2013-06-27 19:29:00,81.5,61.7,28.85,West,270,0.0,0.0,51,0.00,,---,0.00,VWS V14.01,2013-06-28 00:29:00,
2013-06-27 19:35:00,81.5,61.7,28.85,WSW,248,0.0,1.1,51,0.00,,---,0.00,VWS V14.01,2013-06-28 00:35:00,
2013-06-27 19:40:00,81.5,62.2,28.85,SW,225,1.6,1.6,52,0.00,,---,0.00,VWS V14.01,2013-06-28 00:40:00,
2013-06-27 19:45:00,81.5,62.2,28.85,WSW,248,0.0,0.0,52,0.00,,---,0.00,VWS V14.01,2013-06-28 00:45:00,
2013-06-27 19:50:00,81.5,62.7,28.85,West,270,0.0,0.0,53,0.00,,---,0.00,VWS V14.01,2013-06-28 00:50:00,
2013-06-27 19:55:00,81.3,62.6,28.85,SSE,158,0.0,1.3,53,0.00,,---,0.00,VWS V14.01,2013-06-28 00:55:00,
2013-06-27 20:00:00,81.3,63.1,28.88,WSW,248,0.0,0.0,54,0.00,,---,0.00,VWS V14.01,2013-06-28 01:00:00,
2013-06-27 20:06:00,81.1,63.5,28.88,West,270,0.0,0.0,55,0.00,,---,0.00,VWS V14.01,2013-06-28 01:06:00,
2013-06-27 20:11:00,80.8,63.1,28.88,West,270,0.0,0.0,55,0.00,,---,0.00,VWS V14.01,2013-06-28 01:11:00,
2013-06-27 20:16:00,80.6,63.5,28.88,West,270,0.0,0.0,56,0.00,,---,0.00,VWS V14.01,2013-06-28 01:16:00,
2013-06-27 20:21:00,80.4,63.8,28.88,West,270,0.0,0.0,57,0.00,,---,0.00,VWS V14.01,2013-06-28 01:21:00,
2013-06-27 20:26:00,80.2,63.6,28.88,West,270,0.0,0.0,57,0.00,,---,0.00,VWS V14.01,2013-06-28 01:26:00,
2013-06-27 20:31:00,80.1,63.5,28.88,West,270,0.0,0.0,57,0.00,,---,0.00,VWS V14.01,2013-06-28 01:31:00,
2013-06-27 20:36:00,79.9,63.3,28.88,West,270,0.0,0.0,57,0.00,,---,0.00,VWS V14.01,2013-06-28 01:36:00,
2013-06-27 20:41:00,79.7,63.1,28.88,West,270,0.0,0.0,57,0.00,,---,0.00,VWS V14.01,2013-06-28 01:41:00,
2013-06-27 20:46:00,79.3,62.8,28.88,West,270,0.0,0.0,57,0.00,,---,0.00,VWS V14.01,2013-06-28 01:46:00,
2013-06-27 20:51:00,79.2,62.1,28.88,West,270,0.0,0.0,56,0.00,,---,0.00,VWS V14.01,2013-06-28 01:51:00,
2013-06-27 20:56:00,79.0,62.0,28.88,West,270,0.0,0.0,56,0.00,,---,0.00,VWS V14.01,2013-06-28 01:56:00,
2013-06-27 21:01:00,78.8,61.8,28.88,West,270,0.0,0.0,56,0.00,,---,0.00,VWS V14.01,2013-06-28 02:01:00,
2013-06-27 21:06:00,78.6,61.6,28.88,West,270,0.0,0.0,56,0.00,,---,0.00,VWS V14.01,2013-06-28 02:06:00,
2013-06-27 21:11:00,78.4,61.0,28.88,West,270,0.0,0.0,55,0.00,,---,0.00,VWS V14.01,2013-06-28 02:11:00,
2013-06-27 21:16:00,78.3,60.8,28.88,West,270,0.0,0.0,55,0.00,,---,0.00,VWS V14.01,2013-06-28 02:16:00,
2013-06-27 21:21:00,78.1,60.6,28.88,West,270,0.0,0.0,55,0.00,,---,0.00,VWS V14.01,2013-06-28 02:21:00,
2013-06-27 21:26:00,77.9,60.5,28.88,West,270,0.0,0.0,55,0.00,,---,0.00,VWS V14.01,2013-06-28 02:26:00,
2013-06-27 21:32:00,77.7,60.8,28.88,West,270,0.0,0.0,56,0.00,,---,0.00,VWS V14.01,2013-06-28 02:32:00,
2013-06-27 21:37:00,77.4,60.5,28.88,West,270,0.0,0.0,56,0.00,,---,0.00,VWS V14.01,2013-06-28 02:37:00,
2013-06-27 21:42:00,77.2,60.3,28.88,West,270,0.0,0.0,56,0.00,,---,0.00,VWS V14.01,2013-06-28 02:42:00,
2013-06-27 21:47:00,77.0,60.6,28.88,West,270,0.0,0.0,57,0.00,,---,0.00,VWS V14.01,2013-06-28 02:47:00,
2013-06-27 21:52:00,76.8,60.9,28.88,West,270,0.0,0.0,58,0.00,,---,0.00,VWS V14.01,2013-06-28 02:52:00,
2013-06-27 21:57:00,76.6,60.8,28.88,West,270,0.0,0.0,58,0.00,,---,0.00,VWS V14.01,2013-06-28 02:57:00,
2013-06-27 22:02:00,76.5,60.6,28.88,West,270,0.0,0.0,58,0.00,,---,0.00,VWS V14.01,2013-06-28 03:02:00,
2013-06-27 22:07:00,76.3,60.4,28.88,West,270,0.0,0.0,58,0.00,,---,0.00,VWS V14.01,2013-06-28 03:07:00,
2013-06-27 22:12:00,75.9,60.6,28.88,West,270,0.0,0.0,59,0.00,,---,0.00,VWS V14.01,2013-06-28 03:12:00,
2013-06-27 22:17:00,75.7,60.4,28.88,West,270,0.0,0.0,59,0.00,,---,0.00,VWS V14.01,2013-06-28 03:17:00,
2013-06-27 22:22:00,75.6,60.2,28.88,West,270,0.0,0.0,59,0.00,,---,0.00,VWS V14.01,2013-06-28 03:22:00,
2013-06-27 22:27:00,75.4,60.5,28.88,West,270,0.0,0.0,60,0.00,,---,0.00,VWS V14.01,2013-06-28 03:27:00,
2013-06-27 22:32:00,75.2,60.4,28.91,West,270,0.0,0.0,60,0.00,,---,0.00,VWS V14.01,2013-06-28 03:32:00,
2013-06-27 22:37:00,75.0,60.7,28.91,West,270,0.0,0.0,61,0.00,,---,0.00,VWS V14.01,2013-06-28 03:37:00,
2013-06-27 22:42:00,74.8,60.5,28.91,West,270,0.0,0.0,61,0.00,,---,0.00,VWS V14.01,2013-06-28 03:42:00,
2013-06-27 22:47:00,74.7,60.3,28.91,West,270,0.0,0.0,61,0.00,,---,0.00,VWS V14.01,2013-06-28 03:47:00,
2013-06-27 22:52:00,74.7,60.3,28.91,West,270,0.0,0.0,61,0.00,,---,0.00,VWS V14.01,2013-06-28 03:52:00,
2013-06-27 22:57:00,74.5,60.2,28.91,West,270,0.0,0.0,61,0.00,,---,0.00,VWS V14.01,2013-06-28 03:57:00,
2013-06-27 23:01:00,74.3,60.0,28.91,West,270,0.0,0.0,61,0.00,,---,0.00,VWS V14.01,2013-06-28 04:01:00,
2013-06-27 23:02:00,74.3,60.0,28.91,West,270,0.0,0.0,61,0.00,,---,0.00,VWS V14.01,2013-06-28 04:02:00,
2013-06-27 23:03:00,74.3,60.0,28.91,West,270,0.0,0.0,61,0.00,,---,0.00,VWS V14.01,2013-06-28 04:03:00,
2013-06-27 23:08:00,74.1,59.8,28.91,West,270,0.0,0.0,61,0.00,,---,0.00,VWS V14.01,2013-06-28 04:08:00,
2013-06-27 23:14:00,73.8,59.9,28.91,West,270,0.0,0.0,62,0.00,,---,0.00,VWS V14.01,2013-06-28 04:14:00,
2013-06-27 23:19:00,73.6,59.8,28.91,West,270,0.0,0.0,62,0.00,,---,0.00,VWS V14.01,2013-06-28 04:19:00,
2013-06-27 23:24:00,73.4,59.6,28.91,West,270,0.0,0.0,62,0.00,,---,0.00,VWS V14.01,2013-06-28 04:24:00,
2013-06-27 23:29:00,73.2,59.9,28.91,West,270,0.0,0.0,63,0.00,,---,0.00,VWS V14.01,2013-06-28 04:29:00,
2013-06-27 23:34:00,72.9,60.0,28.91,West,270,0.0,0.0,64,0.00,,---,0.00,VWS V14.01,2013-06-28 04:34:00,
2013-06-27 23:39:00,72.9,60.4,28.91,West,270,0.0,0.0,65,0.00,,---,0.00,VWS V14.01,2013-06-28 04:39:00,
2013-06-27 23:44:00,72.7,60.2,28.91,West,270,0.0,0.0,65,0.00,,---,0.00,VWS V14.01,2013-06-28 04:44:00,
2013-06-27 23:49:00,72.5,60.1,28.91,West,270,0.0,0.0,65,0.00,,---,0.00,VWS V14.01,2013-06-28 04:49:00,
2013-06-27 23:54:00,72.3,60.3,28.91,West,270,0.0,0.0,66,0.00,,---,0.00,VWS V14.01,2013-06-28 04:54:00,
2013-06-27 23:59:00,72.1,60.2,28.91,West,270,0.0,0.0,66,0.00,,---,0.12,VWS V14.01,2013-06-28 04:59:00,